Estación Meteorológica Peña el Pijo (Robertgarden) [ 11/16/19 02:30:27 CET ]

Fecha Hora Presion(HPa) Temp (°C) Humedad % Rocio (°C) Viento ( m/s) Direccion Lluvia 1Hora(mm) Lluvia 24H(mm) LLuvia Total(mm)
2019-Jul-14 01:09:09 1009.500 - - - - NNW     342.62
2019-Jul-14 02:08:47 1009.200 - - - - NNW     342.62
2019-Jul-14 03:10:43 1008.600 - - - - NNW     342.62
2019-Jul-14 04:14:06 1008.600 - - - - NNW     342.62
2019-Jul-14 05:09:38 1008.200 - - - - NNW     342.62
2019-Jul-14 06:09:15 1008.000 - - - - NNW     342.62
2019-Jul-14 07:09:38 1008.100 - - - - NNW     342.62
2019-Jul-14 08:09:13 1008.100 - - - - NNW     342.62
2019-Jul-14 09:09:19 1008.100 - - - - NNW     342.62
2019-Jul-14 10:08:46 1008.200 - - - - NNW     342.62
2019-Jul-14 11:09:44 1008.700 - - - - NNW     342.62
2019-Jul-14 12:09:10 1008.600 - - - - NNW     342.62
2019-Jul-14 13:08:57 1008.600 - - - - NNW     342.62
2019-Jul-14 14:09:17 1008.700 - - - - NNW     342.62
2019-Jul-14 15:09:26 1008.300 - - - - NNW     342.62
2019-Jul-14 16:08:58 1008.400 - - - - NNW     342.62
2019-Jul-14 17:08:59 1008.200 - - - - NNW     342.62
2019-Jul-14 18:09:16 1008.300 - - - - NNW     342.62
2019-Jul-14 19:08:51 1008.400 - - - - NNW     342.62
2019-Jul-14 20:08:46 1008.300 - - - - NNW     342.62
2019-Jul-14 21:08:56 1008.700 - - - - NNW     342.62
2019-Jul-14 22:09:09 1008.900 - - - - NNW     342.62
2019-Jul-14 23:09:21 1009.100 - - - - NNW     342.62

Temperatura Máxima:    Temperatura Mínima:
Presión Máxima:1009.500 Hpa    Presión Mínima:1008.000 Hpa


Volver